User: anonymous
Location: Vancouver
(49.2500°N, 123.1330°W)
Time: 02:28:44
(UTC-07:00)
Language:

YAOGAN 6 - Orbit

View from above orbital plane
View from above orbital plane
View from above satellite
View from above satellite

Ground track
Ground track

The orbit data is extracted from the following two-line orbital elements,

1 34839U 09021A   14257.88237625  .00004176  00000-0  19271-3 0    92
2 34839 097.2779 330.5267 0030769 277.3341 172.5194 15.20343561299333
Epoch (UTC): 14 September 2014 21:10:37
Eccentricity: 0.0030769
inclination: 97.2779°
perigee height: 483 km
apogee height: 526 km
right ascension of ascending node: 330.5267°
argument of perigee: 277.3341°
revolutions per day: 15.20343561
mean anomaly at epoch: 172.5194°
orbit number at epoch: 29933

The dashed part of the orbit path shows where the satellite is in the earth's shadow,  

DLR